DLH87A EDDM-LEBL

Flight info

Callsign DLH87A
Flight time N/A
Altitude 37000
Route TURBU6E/08R TURBU Y107 TOBSO DCT BAKOR DCT GEKBA DCT VAMTU DCT KOLON DCT GANGU DCT PADKO DCT DIVKO DCT NILDU N975 BISBA
Aircraft A321/M-SDE2E3FGIJ1LORWXYZ/HB1

Departure

Time N/A
Airport Munich Airport (EDDM)

Arrival

Time 2026-04-29 18:41
Airport Josep Tarradellas Barcelona-El Prat Airport (LEBL)
Time Latitude Longitude Altitude Speed Heading
2026-04-29 17:25 45.36137 9.55246 37091 ft 431 kts 234°
2026-04-29 17:25 45.32279 9.48792 37099 ft 430 kts 234°
2026-04-29 17:26 45.28430 9.42355 37084 ft 430 kts 234°
2026-04-29 17:26 45.24554 9.35885 37072 ft 430 kts 234°
2026-04-29 17:27 45.20672 9.29437 37069 ft 430 kts 234°
2026-04-29 17:27 45.16812 9.23032 37055 ft 429 kts 233°
2026-04-29 17:28 45.12944 9.16614 37077 ft 429 kts 233°
2026-04-29 17:28 45.09056 9.10195 37088 ft 429 kts 233°
2026-04-29 17:29 45.05178 9.03803 37097 ft 428 kts 233°
2026-04-29 17:29 45.01955 8.98493 37092 ft 428 kts 233°
2026-04-29 17:30 44.97436 8.91061 37057 ft 428 kts 233°
2026-04-29 17:30 44.93554 8.84708 37061 ft 428 kts 233°
2026-04-29 17:31 44.89667 8.78360 37057 ft 427 kts 233°
2026-04-29 17:31 44.85785 8.72016 37054 ft 427 kts 233°
2026-04-29 17:32 44.81904 8.65701 37063 ft 426 kts 232°
2026-04-29 17:32 44.78036 8.59438 37069 ft 426 kts 232°
2026-04-29 17:33 44.74148 8.53145 37071 ft 426 kts 233°
2026-04-29 17:33 44.70263 8.46853 37077 ft 426 kts 232°
2026-04-29 17:34 44.66373 8.40570 37062 ft 426 kts 232°
2026-04-29 17:34 44.62468 8.34301 37069 ft 426 kts 232°
2026-04-29 17:35 44.56640 8.24953 37078 ft 427 kts 232°
2026-04-29 17:36 44.52730 8.18681 37083 ft 427 kts 232°
2026-04-29 17:36 44.48817 8.12425 37087 ft 427 kts 232°
2026-04-29 17:37 44.44896 8.06185 37085 ft 427 kts 232°
2026-04-29 17:37 44.41000 7.99991 37087 ft 427 kts 232°
2026-04-29 17:38 44.37074 7.93767 37083 ft 427 kts 232°
2026-04-29 17:38 44.33141 7.87553 37078 ft 427 kts 231°
2026-04-29 17:39 44.29206 7.81342 37081 ft 427 kts 232°
2026-04-29 17:39 44.25063 7.75454 37079 ft 430 kts 225°
2026-04-29 17:40 44.20580 7.69941 37091 ft 430 kts 225°
2026-04-29 17:40 44.16085 7.64421 37075 ft 430 kts 224°
2026-04-29 17:41 44.11988 7.58421 37089 ft 427 kts 232°
2026-04-29 17:41 44.08094 7.52183 37085 ft 428 kts 232°
2026-04-29 17:42 44.04174 7.45927 37084 ft 428 kts 232°
2026-04-29 17:42 44.00291 7.39719 37085 ft 429 kts 232°
2026-04-29 17:43 43.96368 7.33480 37080 ft 429 kts 231°
2026-04-29 17:43 43.92438 7.27246 37072 ft 429 kts 231°
2026-04-29 17:44 43.88503 7.21024 37051 ft 428 kts 231°
2026-04-29 17:44 43.84601 7.14863 37058 ft 429 kts 231°
2026-04-29 17:45 43.80669 7.08653 37047 ft 428 kts 231°
2026-04-29 17:45 43.76735 7.02455 37045 ft 428 kts 231°
2026-04-29 17:46 43.72921 6.96211 37048 ft 426 kts 238°
2026-04-29 17:46 43.70295 6.88942 37050 ft 423 kts 250°
2026-04-29 17:47 43.68085 6.81394 37047 ft 424 kts 249°
2026-04-29 17:47 43.65866 6.73855 37051 ft 424 kts 249°
2026-04-29 17:48 43.63646 6.66365 37045 ft 424 kts 249°
2026-04-29 17:48 43.61398 6.58809 37046 ft 425 kts 249°
2026-04-29 17:49 43.59157 6.51297 37047 ft 426 kts 249°
2026-04-29 17:49 43.56907 6.43741 37044 ft 426 kts 249°
2026-04-29 17:50 43.54649 6.36179 37045 ft 426 kts 249°
2026-04-29 17:50 43.52378 6.28632 37049 ft 427 kts 248°
2026-04-29 17:51 43.50116 6.21121 37050 ft 426 kts 248°
2026-04-29 17:51 43.47836 6.13580 37049 ft 426 kts 248°
2026-04-29 17:52 43.45549 6.06050 37039 ft 426 kts 248°
2026-04-29 17:52 43.43263 5.98539 37044 ft 426 kts 248°
2026-04-29 17:53 43.40995 5.91067 37040 ft 425 kts 248°
2026-04-29 17:53 43.38723 5.83557 37036 ft 426 kts 248°
2026-04-29 17:54 43.36426 5.76070 37039 ft 425 kts 248°
2026-04-29 17:54 43.34125 5.68574 37035 ft 425 kts 248°
2026-04-29 17:55 43.31817 5.61098 37027 ft 425 kts 247°
2026-04-29 17:55 43.29510 5.53682 37016 ft 425 kts 247°
2026-04-29 17:56 43.27186 5.46206 37005 ft 426 kts 247°
2026-04-29 17:56 43.24851 5.38732 37011 ft 427 kts 247°
2026-04-29 17:57 43.22512 5.31254 37015 ft 427 kts 246°
2026-04-29 17:57 43.20188 5.23814 37022 ft 427 kts 246°
2026-04-29 17:58 43.17847 5.16326 37026 ft 427 kts 246°
2026-04-29 17:58 43.15500 5.08862 37026 ft 427 kts 246°
2026-04-29 17:59 43.13140 5.01398 37032 ft 427 kts 246°
2026-04-29 17:59 43.10789 4.93986 37022 ft 428 kts 246°
2026-04-29 18:00 43.08407 4.86519 37021 ft 429 kts 246°
2026-04-29 18:00 43.05816 4.79181 37023 ft 429 kts 236°
2026-04-29 18:01 43.01851 4.73141 37028 ft 429 kts 221°
2026-04-29 18:01 42.97376 4.67741 37028 ft 429 kts 221°
2026-04-29 18:02 42.92904 4.62333 37035 ft 430 kts 221°
2026-04-29 18:02 42.88453 4.56968 37025 ft 430 kts 222°
2026-04-29 18:03 42.83982 4.51591 37034 ft 428 kts 221°
2026-04-29 18:03 42.79512 4.46231 37037 ft 428 kts 221°
2026-04-29 18:04 42.75072 4.40914 37035 ft 427 kts 221°
2026-04-29 18:04 42.70607 4.35581 37035 ft 427 kts 221°
2026-04-29 18:05 42.66140 4.30252 37032 ft 427 kts 221°
2026-04-29 18:05 42.61672 4.24934 37031 ft 427 kts 221°
2026-04-29 18:06 42.57238 4.19655 37030 ft 427 kts 221°
2026-04-29 18:06 42.54998 4.16993 36891 ft 431 kts 221°
2026-04-29 18:06 42.52739 4.14318 36353 ft 430 kts 221°
2026-04-29 18:06 42.50494 4.11668 35823 ft 427 kts 221°
2026-04-29 18:07 42.48267 4.09042 35364 ft 422 kts 221°
2026-04-29 18:07 42.46058 4.06437 34886 ft 419 kts 221°
2026-04-29 18:07 42.43870 4.03854 34440 ft 416 kts 221°
2026-04-29 18:07 42.41701 4.01288 33981 ft 412 kts 221°
2026-04-29 18:08 42.39579 3.98778 33494 ft 408 kts 221°
2026-04-29 18:08 42.37452 3.96271 33047 ft 403 kts 221°
2026-04-29 18:08 42.35355 3.93805 32607 ft 398 kts 221°
2026-04-29 18:08 42.33274 3.91362 32159 ft 394 kts 221°
2026-04-29 18:09 42.31220 3.88952 31726 ft 389 kts 221°
2026-04-29 18:09 42.29188 3.86571 31294 ft 385 kts 221°
2026-04-29 18:09 42.27169 3.84208 30869 ft 381 kts 220°
2026-04-29 18:09 42.25174 3.81874 30439 ft 378 kts 220°
2026-04-29 18:10 42.23193 3.79558 29998 ft 375 kts 220°
2026-04-29 18:10 42.21232 3.77267 29526 ft 371 kts 220°
2026-04-29 18:10 42.19317 3.75031 29129 ft 366 kts 220°
2026-04-29 18:10 42.17395 3.72789 28649 ft 370 kts 220°
2026-04-29 18:11 42.15429 3.70494 28152 ft 376 kts 220°
2026-04-29 18:11 42.13449 3.68186 27642 ft 376 kts 221°
2026-04-29 18:11 42.11477 3.65889 27147 ft 374 kts 221°
2026-04-29 18:11 42.09597 3.63476 26671 ft 372 kts 229°
2026-04-29 18:12 42.08086 3.60665 26183 ft 370 kts 239°
2026-04-29 18:12 42.06982 3.57607 25724 ft 368 kts 245°
2026-04-29 18:12 42.05953 3.54470 25266 ft 365 kts 245°
2026-04-29 18:12 42.04925 3.51351 24806 ft 363 kts 245°
2026-04-29 18:13 42.03901 3.48266 24358 ft 361 kts 245°
2026-04-29 18:13 42.02875 3.45202 23927 ft 358 kts 245°
2026-04-29 18:13 42.01851 3.42144 23467 ft 356 kts 245°
2026-04-29 18:13 42.00845 3.39121 22959 ft 353 kts 245°
2026-04-29 18:14 42.00184 3.37124 22618 ft 352 kts 245°
2026-04-29 18:14 41.99192 3.34134 22118 ft 349 kts 245°
2026-04-29 18:14 41.98205 3.31167 21626 ft 347 kts 245°
2026-04-29 18:14 41.97220 3.28221 21140 ft 344 kts 245°
2026-04-29 18:15 41.95922 3.24351 20504 ft 341 kts 245°
2026-04-29 18:15 41.95265 3.22395 20178 ft 339 kts 245°
2026-04-29 18:15 41.94496 3.19417 19730 ft 337 kts 256°
2026-04-29 18:15 41.93814 3.15367 19124 ft 335 kts 256°
2026-04-29 18:16 41.93466 3.13350 18825 ft 333 kts 256°
2026-04-29 18:16 41.92939 3.10335 18397 ft 331 kts 256°
2026-04-29 18:16 41.92413 3.07336 17979 ft 329 kts 256°
2026-04-29 18:16 41.91889 3.04354 17553 ft 327 kts 256°
2026-04-29 18:17 41.91201 3.00449 16998 ft 323 kts 256°
2026-04-29 18:17 41.90853 2.98473 16718 ft 321 kts 256°
2026-04-29 18:17 41.90340 2.95564 16320 ft 319 kts 256°
2026-04-29 18:17 41.89837 2.92706 15921 ft 317 kts 255°
2026-04-29 18:18 41.89330 2.89838 15522 ft 315 kts 255°
2026-04-29 18:18 41.88826 2.86982 15133 ft 313 kts 255°
2026-04-29 18:18 41.88327 2.84150 14745 ft 311 kts 255°
2026-04-29 18:18 41.87832 2.81338 14367 ft 309 kts 255°
2026-04-29 18:19 41.87336 2.78539 13981 ft 307 kts 255°
2026-04-29 18:19 41.86842 2.75759 13590 ft 306 kts 255°
2026-04-29 18:19 41.86358 2.73035 13175 ft 304 kts 255°
2026-04-29 18:19 41.85867 2.70283 12759 ft 302 kts 255°
2026-04-29 18:20 41.85380 2.67552 12357 ft 300 kts 255°
2026-04-29 18:20 41.84895 2.64836 11957 ft 298 kts 255°
2026-04-29 18:20 41.84411 2.62136 11554 ft 297 kts 255°
2026-04-29 18:20 41.83931 2.59454 11162 ft 295 kts 255°
2026-04-29 18:21 41.83454 2.56789 10975 ft 294 kts 255°
2026-04-29 18:21 41.82975 2.54116 10973 ft 296 kts 255°
2026-04-29 18:21 41.82493 2.51433 10976 ft 296 kts 255°
2026-04-29 18:21 41.82011 2.48751 10972 ft 296 kts 255°
2026-04-29 18:22 41.81533 2.46100 10972 ft 296 kts 255°
2026-04-29 18:22 41.81047 2.43413 10980 ft 297 kts 255°
2026-04-29 18:22 41.80560 2.40731 10982 ft 297 kts 255°
2026-04-29 18:22 41.80072 2.38048 10979 ft 296 kts 255°
2026-04-29 18:23 41.79586 2.35364 10978 ft 296 kts 255°
2026-04-29 18:23 41.79100 2.32680 10981 ft 296 kts 255°
2026-04-29 18:23 41.78612 2.29992 10784 ft 296 kts 255°
2026-04-29 18:23 41.78132 2.27362 10530 ft 293 kts 254°
2026-04-29 18:24 41.77602 2.24738 10249 ft 291 kts 247°
2026-04-29 18:24 41.76650 2.22374 10002 ft 288 kts 231°
2026-04-29 18:24 41.75269 2.20489 9722 ft 280 kts 216°
2026-04-29 18:24 41.73587 2.19204 9434 ft 278 kts 201°
2026-04-29 18:25 41.71743 2.18459 9186 ft 277 kts 195°
2026-04-29 18:25 41.69885 2.17763 8990 ft 277 kts 195°
2026-04-29 18:25 41.68030 2.17059 8778 ft 276 kts 195°
2026-04-29 18:25 41.66181 2.16357 8574 ft 276 kts 195°
2026-04-29 18:26 41.64339 2.15657 8372 ft 275 kts 195°
2026-04-29 18:26 41.62529 2.14970 8173 ft 274 kts 195°
2026-04-29 18:26 41.60696 2.14273 7970 ft 274 kts 195°
2026-04-29 18:26 41.58870 2.13580 7764 ft 273 kts 195°
2026-04-29 18:27 41.57043 2.12886 7577 ft 272 kts 195°
2026-04-29 18:27 41.55225 2.12196 7379 ft 272 kts 195°
2026-04-29 18:27 41.53442 2.11381 7081 ft 270 kts 205°
2026-04-29 18:27 41.51887 2.10011 6795 ft 269 kts 220°
2026-04-29 18:28 41.50665 2.08109 6507 ft 271 kts 236°
2026-04-29 18:28 41.49704 2.05989 6221 ft 271 kts 237°
2026-04-29 18:28 41.48724 2.03843 5911 ft 271 kts 236°
2026-04-29 18:28 41.47745 2.01709 5612 ft 270 kts 236°
2026-04-29 18:29 41.46764 1.99576 5314 ft 269 kts 236°
2026-04-29 18:29 41.45786 1.97451 5008 ft 269 kts 237°
2026-04-29 18:29 41.44810 1.95332 4985 ft 269 kts 236°
2026-04-29 18:29 41.43827 1.93197 5005 ft 271 kts 237°
2026-04-29 18:30 41.42842 1.91053 5010 ft 271 kts 236°
2026-04-29 18:30 41.41857 1.88911 5010 ft 272 kts 236°
2026-04-29 18:30 41.40870 1.86771 5010 ft 272 kts 237°
2026-04-29 18:30 41.39881 1.84627 5011 ft 271 kts 236°
2026-04-29 18:31 41.38904 1.82511 5013 ft 271 kts 236°
2026-04-29 18:31 41.37915 1.80367 5010 ft 272 kts 236°
2026-04-29 18:31 41.36938 1.78246 5007 ft 263 kts 236°
2026-04-29 18:31 41.36014 1.76235 5008 ft 246 kts 237°
2026-04-29 18:32 41.35021 1.74456 5011 ft 236 kts 219°
2026-04-29 18:32 41.32029 1.73276 5009 ft 229 kts 168°
2026-04-29 18:32 41.30547 1.73998 5009 ft 228 kts 154°
2026-04-29 18:33 41.29104 1.74877 5008 ft 228 kts 155°
2026-04-29 18:33 41.27585 1.75293 5003 ft 229 kts 184°
2026-04-29 18:33 41.26096 1.74545 4970 ft 237 kts 215°
2026-04-29 18:33 41.25119 1.72788 4663 ft 240 kts 244°
2026-04-29 18:34 41.24296 1.70887 4456 ft 236 kts 221°
2026-04-29 18:34 41.23401 1.70048 4342 ft 232 kts 199°
2026-04-29 18:34 41.21350 1.69856 4154 ft 225 kts 160°
2026-04-29 18:34 41.19919 1.70681 4004 ft 225 kts 152°
2026-04-29 18:35 41.18725 1.71963 3855 ft 221 kts 122°
2026-04-29 18:35 41.18274 1.73881 3733 ft 223 kts 89°
2026-04-29 18:35 41.18670 1.75878 3658 ft 227 kts 68°
2026-04-29 18:35 41.19331 1.77791 3574 ft 228 kts 66°
2026-04-29 18:36 41.19993 1.79661 3509 ft 221 kts 67°
2026-04-29 18:36 41.20617 1.81453 3429 ft 209 kts 67°
2026-04-29 18:36 41.21220 1.83198 3356 ft 206 kts 67°
2026-04-29 18:36 41.21815 1.84920 3300 ft 205 kts 68°
2026-04-29 18:37 41.22407 1.86633 3232 ft 205 kts 67°
2026-04-29 18:37 41.23001 1.88352 3024 ft 204 kts 68°
2026-04-29 18:37 41.23589 1.90055 2770 ft 200 kts 67°
2026-04-29 18:37 41.24157 1.91703 2510 ft 191 kts 67°
2026-04-29 18:38 41.24691 1.93250 2275 ft 177 kts 66°
2026-04-29 18:38 41.25177 1.94658 2057 ft 166 kts 66°
2026-04-29 18:38 41.25643 1.96013 1842 ft 156 kts 67°
2026-04-29 18:38 41.26094 1.97324 1635 ft 156 kts 66°
2026-04-29 18:39 41.26537 1.98611 1418 ft 149 kts 67°
2026-04-29 18:39 41.26950 1.99814 1246 ft 139 kts 65°
2026-04-29 18:39 41.27348 2.00966 1028 ft 135 kts 67°
2026-04-29 18:39 41.27736 2.02074 827 ft 132 kts 67°
2026-04-29 18:40 41.28120 2.03184 697 ft 132 kts 66°
2026-04-29 18:40 41.28491 2.04291 551 ft 133 kts 65°
2026-04-29 18:40 41.28874 2.05404 324 ft 135 kts 68°
2026-04-29 18:40 41.29248 2.06513 154 ft 131 kts 66°
2026-04-29 18:41 41.30105 2.08998 16 ft 31 kts 64°
2026-04-29 18:41 41.30133 2.09263 15 ft 25 kts 91°
2026-04-29 18:42 41.30103 2.09420 17 ft 13 kts 142°
2026-04-29 18:42 41.30040 2.09369 17 ft 13 kts 243°
2026-04-29 18:42 41.30003 2.09256 18 ft 14 kts 245°
2026-04-29 18:42 41.29957 2.09126 16 ft 17 kts 247°
2026-04-29 18:43 41.29906 2.08974 16 ft 19 kts 246°
2026-04-29 18:43 41.29853 2.08816 18 ft 19 kts 245°
2026-04-29 18:43 41.29794 2.08645 18 ft 21 kts 246°
2026-04-29 18:43 41.29731 2.08465 19 ft 22 kts 245°
2026-04-29 18:44 41.29669 2.08285 18 ft 16 kts 245°
2026-04-29 18:44 41.29602 2.08237 18 ft 13 kts 162°
2026-04-29 18:44 41.29515 2.08289 20 ft 15 kts 155°
2026-04-29 18:44 41.29416 2.08347 19 ft 17 kts 156°
2026-04-29 18:45 41.29303 2.08415 20 ft 19 kts 153°
2026-04-29 18:45 41.29190 2.08443 18 ft 17 kts 196°
2026-04-29 18:45 41.29083 2.08393 18 ft 12 kts 202°
2026-04-29 18:45 41.29030 2.08309 18 ft 12 kts 246°
2026-04-29 18:46 41.29001 2.08218 20 ft 10 kts 246°
2026-04-29 18:46 41.28976 2.08144 18 ft 8 kts 246°
2026-04-29 18:46 41.28957 2.08087 18 ft 6 kts 245°
2026-04-29 18:46 41.28953 2.08046 18 ft 4 kts 296°
2026-04-29 18:47 41.28971 2.08029 19 ft 3 kts 329°
2026-04-29 18:47 41.28995 2.08015 18 ft 4 kts 338°
2026-04-29 18:47 41.29014 2.08006 18 ft 2 kts 342°
2026-04-29 18:47 41.29021 2.08003 18 ft 0 kts 342°
2026-04-29 18:48 41.29022 2.08002 18 ft 0 kts 342°